Regional Weather Roundup
Issued by NWS

Home | Current Version | Previous Version | Graphics & Text | Print | Product List | Glossary On
Versions: 1 2 3 4 5 6 7 8 9 10 11 12 13 14 15 16 17 18 19 20 21 22 23 24 25 26 27 28 29 30 31 32 33 34 35 36 37 38 39 40 41 42 43 44 45 46 47 48 49 50
000
ASUS43 KMPX 230301
RWRMN
WEATHER ROUNDUP FOR MINNESOTA
NATIONAL WEATHER SERVICE TWIN CITIES/CHANHASSEN MN
1000 PM CDT FRI JUL 22 2016


NOTE: "FAIR" INDICATES FEW OR NO CLOUDS BELOW 12,000 FEET WITH NO
SIGNIFICANT WEATHER AND/OR OBSTRUCTIONS TO VISIBILITY. N/A MEANS
CURRENT SKY AND/OR WEATHER CONDITIONS ARE NOT AVAILABLE.

MNZ060>063-068>070-230400-
   Twin Cities Metro

CITY           SKY/WX    TMP DP  RH WIND       PRES   REMARKS
TWIN CITIES    CLOUDY    84  63  49 SE7       29.97R
ST PAUL        CLOUDY    78  68  71 S6        29.97R
CRYSTAL        CLOUDY    80  63  55 SE3       29.96R
BLAINE         MOCLDY    81  66  61 CALM      29.98R
LAKEVILLE      CLEAR     73  68  83 CALM      29.98R
EDEN PRAIRIE   PTCLDY    83  64  52 E5        29.96R
LAKEVILLE      CLEAR     73  68  83 CALM      29.98R
SOUTH ST PAUL  CLEAR     81  68  65 CALM      29.97S
LAKE ELMO      FAIR      75  68  78 CALM      29.99S
$$
MNZ001>005-007-008-013>017-022>024-027-028-230400-
   Northwest Minnesota

CITY           SKY/WX    TMP DP  RH WIND       PRES   REMARKS
BEMIDJI        PTCLDY    70  64  83 NW3       30.02R
HALLOCK        CLEAR     70  66  88 CALM      30.00R
ROSEAU         CLEAR     70  63  78 CALM      30.01R
WARROAD        CLEAR     72  61  68 W5        30.01R
THIEF RVR FALL CLOUDY    71  65  81 CALM      30.02R
CROOKSTON      CLOUDY    75  64  69 NE3       30.00R
FOSSTON        CLOUDY    68  61  77 CALM      30.03R
DETROIT LAKES  CLOUDY    77  68  73 NE3       30.02R
MOORHEAD       CLOUDY    75  68  78 NE5       29.98R
PARK RAPIDS    CLOUDY    78  65  63 NE5       30.01R
MAHNOMEN       FAIR      71  66  84 NE6       30.01R
$$
MNZ006-009>011-018-025>026-230400-
   North Central Minnesota

CITY           SKY/WX    TMP DP  RH WIND       PRES   REMARKS
BAUDETTE       CLEAR     68  62  81 W3        30.01R
FLAG ISLAND    CLEAR     75  59  57 NW5       29.98R
INTL FALLS     CLEAR     61  59  93 CALM      29.98R
WASKISH        CLEAR     66  63  88 CALM      30.01R
BIG FORK       CLEAR     64  61  88 CALM      30.02R
LONGVILLE      CLOUDY    68  66  94 CALM      30.02R
GRAND RAPIDS   CLEAR     66  63  90 CALM      30.03
CRANE LAKE     CLEAR     63  61  94 CALM      29.99R
ORR            CLEAR     64  59  82 CALM      29.98R
COOK           CLEAR     66  63  88 CALM      30.01R
WALKER         FAIR      68  64  87 CALM      30.02R
$$
MNZ012-019>021-037-230400-
   Northeast Minnesota

CITY           SKY/WX    TMP DP  RH WIND       PRES   REMARKS
DULUTH         CLEAR     74  59  59 NW3       29.99R
ELY            CLEAR     66  61  82 CALM      29.99R
HIBBING        CLEAR     62  61  96 CALM      30.00R
EVELETH        CLEAR     65  63  93 CALM      30.01R
DULUTH HARBOR  CLEAR     82  64  54 W6        29.95R
TWO HARBORS    CLEAR     73  64  73 NW3       29.96R
SILVER BAY     CLEAR     70  64  83 CALM      29.96R
GRAND MARAIS     N/A     72  53  51 NW5       29.92R
G MARAIS ARPRT CLEAR     66  50  55 W5        30.00R
$$
MNZ029>031-032-039>041-046>048-054>057-064-230400-
   West Central Minnesota

CITY           SKY/WX    TMP DP  RH WIND       PRES   REMARKS
FERGUS FALLS   MOCLDY    81  70  69 SE3       29.98R
WHEATON        CLOUDY    75  72  88 CALM      29.99R
MORRIS         CLOUDY    75  70  83 E3        29.98R
ALEXANDRIA     CLOUDY    77  69  76 E3        30.01R
ELBOW LAKE     FAIR      80  69  68 SE6       29.98R
WADENA         CLOUDY    70  66  88 CALM      30.00R
GLENWOOD       CLOUDY    73  68  83 E3        30.01R
APPLETON       MOCLDY    79  68  69 CALM      29.96R
BENSON         PTCLDY    77  66  69 CALM      29.98R
ORTONVILLE     MOCLDY    77  66  69 E7        29.97R
MADISON        CLOUDY    75  68  78 NE3       29.97R
WILLMAR        FAIR      77  66  69 E3        29.98R
$$
MNZ033>034-036-042>043-049>051-058-059-230400-
   Central Minnesota

CITY           SKY/WX    TMP DP  RH WIND       PRES   REMARKS
ST CLOUD       CLOUDY    72  71  97 CALM      29.98R
SAUK CENTRE    FAIR      73  70  88 CALM      29.99R
PAYNESVILLE    CLOUDY    76  68  76 CALM      29.99R
AITKIN         CLEAR     72  64  78 N3        30.00R
PINE RIVER     CLOUDY    72  66  83 CALM      30.05R
BRAINERD       CLEAR     76  73  91 CALM      30.00R
STAPLES        CLOUDY    73  68  83 NE5       30.00R
LONG PRAIRIE   FAIR      73  72  94 CALM      30.00S
LITTLE FALLS   CLEAR     72  70  94 CALM      30.00R
LITCHFIELD     CLOUDY    75  70  83 E5        29.98R
BUFFALO        CLOUDY    77  67  70 CALM      29.98S
MAPLE LAKE     PTCLDY    75  70  85 CALM      29.99R
HUTCHINSON     CLEAR     76  71  84 E3        29.98S
$$
MNZ037-044-045-052-053-230400-
   East Central Minnesota

CITY           SKY/WX    TMP DP  RH WIND       PRES   REMARKS
PRINCETON      CLOUDY    73  70  88 CALM      29.98S
MORA           CLOUDY    73  70  88 CALM      30.00R
CAMBRIDGE      CLOUDY    79  66  65 CALM      29.96S
RUSH CITY      CLOUDY    72  70  92 CALM      29.98R
MOOSE LAKE     CLOUDY    72  68  88 CALM      29.98R
HINCKLEY       FAIR      72  72 100 CALM      29.99R
CLOQUET        CLEAR     72  64  78 CALM      30.00R
MCGREGOR       CLEAR     73  68  83 CALM      30.01R
$$
MNZ071>073-080-081-089-090-097-098-230400-
   Southwest Minnesota

CITY           SKY/WX    TMP DP  RH WIND       PRES   REMARKS
MONTEVIDEO     MOCLDY    73  70  88 SE7       29.98R
GRANITE FALLS  PTCLDY    79  69  69 E6        29.97F
CANBY          CLOUDY    77  69  76 SE5       29.97S
MARSHALL       MOCLDY    81  70  69 E8        29.97R
REDWOOD FALLS  PTCLDY    81  69  67 E8        29.95R
OLIVIA         MOCLDY    79  66  65 E6        29.96S
PIPESTONE      CLOUDY    81  75  83 E5        29.97R
WINDOM         CLOUDY    81  75  83 E5        29.97R
WORTHINGTON    CLOUDY    80  79  96 E8        29.97S
JACKSON        MOCLDY    81  77  89 SE6       29.98S
TRACY          CLOUDY    80  70  73 SE7       29.97R
SLAYTON        CLOUDY    79  76  89 NE6       29.99R
$$
MNZ065>067-074>077-082>085-091>093-230400-
   South Central Minnesota

CITY           SKY/WX    TMP DP  RH WIND       PRES   REMARKS
MANKATO        MOCLDY    81  70  69 E7        29.97R
NEW ULM        MOCLDY    82  66  57 E8        29.95F
ST JAMES       MOCLDY    75  72  88 E6        29.97R
FAIRMONT       MOCLDY    81  48  32 E6        29.97R
GLENCOE        MOCLDY    78  72  80 SE5       29.96F
FARIBAULT      CLOUDY    75  72  88 CALM      29.99R
OWATONNA       PTCLDY    79  72  78 E5        29.99R
WASECA         PTCLDY    79  70  73 E7        29.99R
ALBERT LEA     CLEAR     81  79  94 S3        29.99R
$$
MNZ078>079-086>088-094>096-230400-
   Southeast Minnesota

CITY           SKY/WX    TMP DP  RH WIND       PRES   REMARKS
ROCHESTER      CLEAR     80  76  87 E8        30.01R
RED WING       CLEAR     75  70  83 CALM      29.97R
STANTON        CLOUDY    72  68  88 CALM      29.98R
DODGE CENTER   PTCLDY    75  70  83 E3        30.01R
WINONA         CLEAR     79  72  78 CALM      29.97R
AUSTIN         CLEAR     79  75  89 CALM      29.99R
PRESTON        PTCLDY    79  76  89 S6        30.01R
$$
ABBREVIATIONS USED IN REMARKS
   TC - TEMPERATURES IN CELSIUS
  WCI - WIND CHILL INDEX
   HX - HEAT INDEX
  VSB - VISIBILITY
$$




USA.gov is the U.S. government's official web portal to all federal, state and local government web resources and services.